Regional Weather Roundup
Issued by NWS

Home | Current Version | Previous Version | Graphics & Text | Print | Product List | Glossary On
Versions: 1 2 3 4 5 6 7 8 9 10 11 12 13 14 15 16 17 18 19 20 21 22 23 24 25 26 27 28 29 30 31 32 33 34 35 36 37 38 39 40 41 42 43 44 45 46 47 48 49 50
000
ASUS45 KCYS 280610
RWRWY

WYOMING REGIONAL WEATHER ROUNDUP
NATIONAL WEATHER SERVICE CHEYENNE WY
1200 AM MDT SAT MAR 28 2015

NOTE:  "FAIR" INDICATES FEW OR NO CLOUDS BELOW 12,000 FEET
WITH NO SIGNIFICANT WEATHER AND/OR OBSTRUCTIONS TO VISIBILITY.

WYZ001-280700-
YELLOWSTONE NATIONAL PARK

CITY           SKY/WX    TMP DP  RH WIND       PRES   REMARKS
LK YELLOWSTONE   N/A     28  25  88 CALM      30.24F
6HR MIN TEMP:  27; 6HR MAX TEMP:  52;

W YELLOWSTONE  NOT AVBL

$$
WYZ002>013-054>058-071-098>099-280700-
NORTHERN WYOMING

CITY           SKY/WX    TMP DP  RH WIND       PRES   REMARKS
JACKSON        FAIR      34  30  86 N5        30.21S WCI  30
CODY           FAIR      61  28  29 W18G31    30.03F
GREYBULL       FAIR      50  30  46 E9        30.00S
6HR MIN TEMP:  50; 6HR MAX TEMP:  73;

WORLAND        FAIR      44  31  60 SE5       30.01F
6HR MIN TEMP:  44; 6HR MAX TEMP:  71;

SHERIDAN       FAIR      49  29  46 CALM      29.97S
6HR MIN TEMP:  49; 6HR MAX TEMP:  70;

BUFFALO        FAIR      50  28  42 W8        30.02F
6HR MIN TEMP:  49; 6HR MAX TEMP:  65;

GILLETTE       FAIR      36  31  82 CALM      29.99F
6HR MIN TEMP:  35; 6HR MAX TEMP:  67;

HULETT         FAIR      45  32  61 S9        30.00S
NEWCASTLE      FAIR      37  30  75 NE5       30.01R WCI  34

$$
WYZ014>020-022>026-101>103-280700-
CENTRAL WYOMING

CITY           SKY/WX    TMP DP  RH WIND       PRES   REMARKS
BIG PINEY      FAIR      36  25  64 NE3       30.25F
6HR MIN TEMP:  33; 6HR MAX TEMP:  62;

PINEDALE       FAIR      32  28  86 NW7       30.25F WCI  26
DUBOIS         FAIR      41  28  60 NW9       30.20S
LANDER         FAIR      54  22  28 SW12      30.11S
6HR MIN TEMP:  53; 6HR MAX TEMP:  69;

RIVERTON       FAIR      53  28  38 NW12      30.11S
6HR MIN TEMP:  53; 6HR MAX TEMP:  70;

CASPER         FAIR      43  27  53 CALM      30.09R
6HR MIN TEMP:  35; 6HR MAX TEMP:  68;

DOUGLAS        FAIR      42  25  50 N6        30.06F
6HR MIN TEMP:  41; 6HR MAX TEMP:  68;


$$
WYZ021-027>030-104>119-280700-
SOUTHERN WYOMING

CITY           SKY/WX    TMP DP  RH WIND       PRES   REMARKS
EVANSTON       FAIR      46  24  42 S6        30.26F
6HR MIN TEMP:  46; 6HR MAX TEMP:  62;

KEMMERER       FAIR      39  30  70 N3        30.26S
ROCK SPRINGS   FAIR      45  25  45 W8        30.23S
6HR MIN TEMP:  44; 6HR MAX TEMP:  66;

DIXON          FAIR      38  27  65 NE3       30.25S
RAWLINS        FAIR      46  21  37 W12       30.19S
6HR MIN TEMP:  44; 6HR MAX TEMP:  64;

SARATOGA       FAIR      46  21  36 NW3       30.21S
LARAMIE        FAIR      35  25  66 S9        30.18F WCI  28
6HR MIN TEMP:  35; 6HR MAX TEMP:  57;

CHEYENNE       FAIR      45  25  45 W10       30.12F
6HR MIN TEMP:  45; 6HR MAX TEMP:  64;

TORRINGTON     FAIR      44  26  49 N6        30.01F
6HR MIN TEMP:  41; 6HR MAX TEMP:  70;

PINE BLUFFS    FAIR      34  28  80 W10       30.09S WCI  26

$$


USA.gov is the U.S. government's official web portal to all federal, state and local government web resources and services.